Location: ?????
(37.7324°N, 23.9257°E)
Time: 22:31:10
(UTC+00:00)

Cosmos 2228 Rocket - Pass Details

Date: 29 November 2020
Orbit: 618 x 652 km, 82.5° (Epoch: 18 January)

Event Time Altitude Azimuth Distance (km) Brightness Sun altitude
Rises 04:07:51 0° 354° (N) 2,913 6.3 -13.9°
Reaches altitude 10° 04:10:06 10° 356° (N) 1,998 5.5 -13.5°
Maximum altitude 04:14:31 76° 82° (E) 642 3.2 -12.6°
Drops below altitude 10° 04:18:53 10° 169° (SSE) 1,974 6.0 -11.8°
Sets 04:21:06 0° 171° (S) 2,874 6.9 -11.4°
